{"data":{"norad_id":68472,"intl_designator":"2026-067BJ","name":"FLYLAB1","alt_names":[],"object_type":"PAYLOAD","status":"ACTIVE","operator":null,"country":"FR","launch_date":"2026-03-30","launch_site_code":"AFWTR","launch_vehicle":null,"mission":null,"orbit_class":"UNKNOWN","rcs_meters":null,"size_class":null,"mass_kg":null,"dimensions":null,"purposes":[],"wikipedia_slug":null,"has_3d_model":false,"image_url":null,"decayed_at":null,"tle_current":{"epoch":"2026-09-16T13:03:21.485088Z","epoch_age_seconds":410704,"freshness":"STALE","line1":"1 68472U 26067BJ  26259.54399867  .00000869  00000+0  91184-4 0  9992","line2":"2 68472  97.7731 216.3281 0005277  98.5027 261.6790 14.92051137 25346","mean_motion":14.92051137,"eccentricity":0.0005277,"inclination_deg":97.7731,"raan_deg":216.3281,"arg_perigee_deg":98.5027,"mean_anomaly_deg":261.679,"bstar":9.1184e-5,"rev_number":2534,"period_min":96.511437462884,"perigee_km":587.86291790674,"apogee_km":595.21871587469,"semimajor_km":6969.6778168907,"source":"CELESTRAK","updated_at":"2026-09-20T09:00:24.241632Z"}}}